Tracking 23446 objects as of 20-Jun-2021
HD Live streaming from Space Station
objects crossing your sky now

STARLINK-2511

Track STARLINK-2511 now!
10-day predictions
STARLINK-2511 is classified as:


NORAD ID: 48332
Int'l Code: 2021-036BJ
Perigee: 553.3 km
Apogee: 555.4 km
Inclination: 53.1 °
Period: 95.6 minutes
Semi major axis: 6925 km
RCS: Unknown
Launch date: April 29, 2021
Source: United States (US)
Launch site: AIR FORCE EASTERN TEST RANGE (AFETR)
aabbcc
Your satellite tracking list
Your tracking list is empty




NASA's NSSDC Master Catalog

Two Line Element Set (TLE):
1 48332U 21036BJ  21171.50001157  .00000291  00000-0  38445-4 0  9993
2 48332  53.0532 277.3041 0001539 118.5665 175.3542 15.06394464  8898
Source of the keplerian elements: AFSPC